Weather History for KCVG - October, 2011

Change the Weather History Date:

Saturday, October 15, 2011

  Actual Average Record
Temperature  
Mean Temperature 57 °F 56 °F  
Max Temperature 65 °F 67 °F 87 °F (1897)
Min Temperature 49 °F 46 °F 28 °F (2006)
Degree Days  
Heating Degree Days 8 9  
Month to date heating degree days 75 113  
Since 1 July heating degree days 158 171  
Cooling Degree Days 0 0  
Month to date cooling degree days 15 16  
Year to date cooling degree days 1348 1121  
Growing Degree Days 6 (Base 50)    
Moisture  
Dew Point 37 °F    
Average Humidity 48    
Maximum Humidity 66    
Minimum Humidity 30    
Precipitation  
Precipitation 0.00 in 0.11 in 1.59 in (1914)
Month to date precipitation 0.44 1.59  
Year to date precipitation 54.85 34.01  
Snow  
Snow 0.00 in 0.00 in 0.00 in ()
Month to date snowfall 0.0 0.1  
Since 1 July snowfall 0.0 0.1  
Since 1 September snowfall 0.0 0.1  
Snow Depth 0.00 in    
Sea Level Pressure  
Sea Level Pressure 29.90 in    
Wind  
Wind Speed 12 mph (WSW)    
Max Wind Speed 26 mph    
Max Gust Speed 33 mph    
Visibility 10 miles    
Events      
T = Trace of Precipitation, MM = Missing Value Source: NWS Daily Summary

Daily Weather History Graph

Daily Weather History Graph

Search for Another Location

Airport or City:

Trip Planner

Search our weather history database for the weather conditions in past years. The results will help you decide how hot, cold, wet, or windy it might be!

Date:

Astronomy

Oct. 15, 2011 Rise Set
Actual Time 7:47 AM EDT 7:00 PM EDT
Civil Twilight 7:21 AM EDT 7:27 PM EDT
Nautical Twilight 6:50 AM EDT 7:58 PM EDT
Astronomical Twilight 6:19 AM EDT 8:29 PM EDT
Moon 8:58 PM EDT (10/15) 11:09 AM EDT (10/15)
Length of Visible Light 12h 06m
Length of Day
11h 12m
Waning Gibbous, 89% of the Moon is Illuminated
Oct 15
Waning Gibbous
Oct 19
Last Quarter
Oct 26
New
Nov 2
First Quarter
Nov 10
Full

Hourly Weather History & Observations

Time (EDT) Temp. Dew Point Humidity Pressure Visibility Wind Dir Wind Speed Gust Speed Precip Events Conditions
12:52 AM 54.0 °F 39.0 °F 57% 29.77 in 10.0 mi West 11.5 mph 17.3 mph N/A   Partly Cloudy
1:52 AM 53.1 °F 39.0 °F 59% 29.78 in 10.0 mi West 11.5 mph - N/A   Clear
2:52 AM 52.0 °F 39.0 °F 61% 29.81 in 10.0 mi WSW 12.7 mph - N/A   Clear
3:52 AM 51.1 °F 39.0 °F 63% 29.81 in 10.0 mi West 12.7 mph - N/A   Clear
4:52 AM 51.1 °F 39.0 °F 63% 29.82 in 10.0 mi West 16.1 mph 19.6 mph N/A   Clear
5:52 AM 50.0 °F 39.0 °F 66% 29.84 in 10.0 mi WSW 8.1 mph - N/A   Clear
6:52 AM 50.0 °F 39.0 °F 66% 29.86 in 10.0 mi WSW 9.2 mph - N/A   Clear
7:52 AM 48.9 °F 37.9 °F 66% 29.87 in 10.0 mi WSW 10.4 mph - N/A   Clear
8:52 AM 50.0 °F 37.9 °F 63% 29.88 in 10.0 mi WSW 11.5 mph 20.7 mph N/A   Clear
9:52 AM 53.6 °F 37.4 °F 54% 29.91 in 10.0 mi West 18.4 mph 23.0 mph N/A   Clear
10:52 AM 55.9 °F 39.0 °F 53% 29.91 in 10.0 mi West 17.3 mph - N/A   Clear
11:52 AM 59.0 °F 39.2 °F 48% 29.92 in 10.0 mi West 13.8 mph 25.3 mph N/A   Clear
12:52 PM 61.0 °F 37.0 °F 41% 29.91 in 10.0 mi WSW 13.8 mph 27.6 mph N/A   Clear
1:52 PM 63.0 °F 35.1 °F 35% 29.91 in 10.0 mi West 18.4 mph 29.9 mph N/A   Clear
2:52 PM 64.9 °F 34.0 °F 32% 29.91 in 10.0 mi WNW 18.4 mph 33.4 mph N/A   Clear
3:52 PM 64.9 °F 33.1 °F 31% 29.91 in 10.0 mi West 18.4 mph 28.8 mph N/A   Clear
4:52 PM 64.0 °F 32.0 °F 30% 29.91 in 10.0 mi West 16.1 mph 26.5 mph N/A   Clear
5:52 PM 62.1 °F 34.0 °F 35% 29.93 in 10.0 mi West 12.7 mph 20.7 mph N/A   Clear
6:52 PM 59.0 °F 34.0 °F 39% 29.95 in 10.0 mi West 11.5 mph - N/A   Partly Cloudy
7:52 PM 57.2 °F 33.8 °F 41% 29.97 in 10.0 mi West 6.9 mph - N/A   Partly Cloudy
8:52 PM 55.0 °F 35.1 °F 47% 29.98 in 10.0 mi WSW 5.8 mph - N/A   Partly Cloudy
9:52 PM 54.0 °F 35.1 °F 49% 29.98 in 10.0 mi WSW 6.9 mph - N/A   Partly Cloudy
10:52 PM 53.1 °F 36.0 °F 52% 29.98 in 10.0 mi WSW 6.9 mph - N/A   Partly Cloudy
11:52 PM 53.1 °F 37.0 °F 55% 29.99 in 10.0 mi WSW 6.9 mph - N/A   Clear